Vertical_Velocity
0 -5 -2 -3 -1 0 0 1 0 -3 -3 2 -1 -0 -3 -1 3 2 1 -1 2 4 1 2 4 4 2 1 2 1 -2 0 2 1 0 1 0 1 -0 1 -7 -4 -2 -2
-7 -2 -6 -0 0 1 0 1 -3 -4 -1 3 -1 -3 -3 -0 1 0 -3 1 -2 1 4 5 3 2 1 0 -1 -0 -1 -1 -3 -3 -1 0 1 0 -2 -1 -5 1 0 -2
-3 -8 0 0 0 2 -1 -0 -1 -2 -1 -2 -1 -5 -3 1 -1 0 3 4 3 -3 -6 -2 -1 -0 -1 -1 -1 -3 -1 1 -1 0 -1 -1 -0 -2 -3 -1 1 -4 -2 -2
-2 -3 -0 0 -0 -1 1 -2 0 0 -2 -4 -2 -7 -2 -1 -0 -1 1 5 2 -2 2 0 1 -3 -1 1 3 1 -3 -2 -2 -3 -3 2 3 -0 -0 -2 -1 -1 -1 -2
-15 -0 -0 -0 -3 -1 -6 -0 -1 -0 0 -2 -3 0 -12 -1 -1 -1 1 2 4 7 4 -0 2 7 1 2 1 0 7 1 -4 -2 1 1 -2 -3 -0 -1 -3 -1 -1 0
-5 1 0 -7 -1 -1 -0 -2 -2 -1 -1 -1 -5 -4 -6 -2 -1 -0 1 1 -0 -1 -0 1 0 -0 1 1 -4 3 2 1 -2 0 3 0 -1 -1 0 -1 -2 -1 -1 -2
-3 -1 -1 -0 2 -1 -3 -4 -4 -5 -4 -6 -0 -0 -12 -1 -1 -0 -2 -1 -2 -2 -4 -3 -4 -4 -2 -5 -3 0 2 1 -0 0 0 -2 1 0 -0 0 -3 -1 1 2
-1 -12 0 0 -4 -6 -2 -6 -6 -3 -1 -4 -1 -3 -16 -1 -0 0 2 -1 2 1 3 2 12 10 1 0 0 -3 3 -1 1 -0 -2 2 1 -1 -1 -2 -1 -1 -2 -6
-0 -4 -2 -1 0 -5 1 -1 -6 -2 -1 -1 -4 -7 -6 1 -0 1 0 1 1 3 1 0 -4 -2 4 4 -3 -0 3 -1 1 -5 1 -2 -0 0 -2 -2 -4 -4 -2 -0
-4 -3 -1 -3 -0 0 -4 -3 -8 -3 -3 -1 -4 -1 -7 -2 -2 -0 0 -3 -1 1 -1 -1 1 1 3 1 1 -2 1 2 1 2 0 1 1 -3 -4 -4 -1 -1 0 3
-2 -5 -8 -0 -1 -3 -5 -1 -2 -5 -4 -3 -1 -12 -5 -4 -3 -3 -4 -3 -4 -3 -4 0 2 1 2 1 -1 -0 1 2 1 -0 2 2 -1 -5 -4 -0 -0 2 2 0
0 -4 -1 -7 0 2 1 -2 -2 -4 -4 -1 -3 -25 0 -0 -1 1 -1 1 1 2 2 -0 -0 1 -1 1 1 1 -2 -1 0 -0 1 -1 -1 -3 -2 1 1 1 -0 -1
-3 -4 -2 -8 -13 -4 -0 -0 -1 -1 -2 -2 -2 -17 -1 -1 0 -1 -2 -3 -0 2 1 2 3 1 2 1 0 -2 -2 1 2 0 0 0 1 -3 1 1 1 -0 -1 -2
-2 -0 -3 -5 -8 -3 1 0 0 -2 -2 -2 -9 -7 -5 -3 -1 -2 -3 -3 -1 -1 2 4 2 -1 0 1 -0 -1 -1 -0 2 0 1 1 1 -1 0 2 0 -1 -3 -0
-4 -0 1 -1 -1 1 -1 -0 -0 0 -4 -2 -22 -2 -5 -3 -3 -7 -1 1 2 1 -1 2 4 4 1 -1 -1 0 2 1 3 1 -1 1 1 -1 0 0 -1 -1 0 -1
0 -3 -0 -2 -1 1 1 -0 0 -0 -2 2 2 -11 -1 -7 2 -0 -7 2 -2 0 1 1 1 1 -1 -1 -1 1 1 2 2 -0 0 2 0 0 1 -1 -1 0 1 -1
-1 -1 -1 -2 0 0 1 -7 -3 -1 -0 -3 1 -18 -1 -2 -0 -3 -4 1 -1 -1 -2 -3 -0 1 -1 -2 1 0 2 2 -0 -0 0 1 1 -0 -1 -1 0 0 0 -1
-1 0 -0 -1 1 2 -17 -0 -1 -1 -3 0 1 -3 -2 -3 -3 -1 1 -0 -2 -1 -1 -1 -1 -0 1 1 1 2 2 2 -0 -0 2 1 -0 -1 -1 1 -0 -1 -2 -1
-0 -1 -1 0 -0 -10 -9 -7 -1 -4 -12 -2 -2 -2 -1 -0 0 -4 1 1 0 1 0 0 2 1 0 1 1 1 1 1 0 1 -0 -1 -0 -1 -0 0 -2 -2 -1 -0
1 0 1 1 2 -1 -8 -1 1 -0 -9 -0 0 -1 -1 0 -2 -5 -1 0 1 1 0 -1 -1 0 2 0 1 1 0 -0 -0 -0 -0 1 -1 -1 0 -1 -1 -1 -1 -0
-0 0 -2 -0 -0 -6 -3 -1 2 4 -18 0 2 1 -0 -2 -6 -1 -0 -0 1 2 0 -1 -1 1 -0 0 -1 -1 -1 -1 2 0 -0 -0 0 0 -0 -1 -1 -1 -1 -1
-3 -2 -1 2 2 -7 -2 -7 1 -8 -5 2 0 2 -0 1 -1 -0 1 0 0 -1 -3 -1 -1 -1 -0 1 -0 -0 -1 1 0 -0 -0 0 1 -0 1 -1 -2 -1 -1 -0
-2 -9 -8 -7 -6 -4 4 -5 -5 6 2 -11 4 5 1 1 0 1 -0 0 0 -0 -2 -0 0 -3 1 0 1 -1 0 -0 -0 0 -0 -0 -1 -1 -2 -3 -2 -2 -1 -1
-0 -1 -1 0 -6 -7 -5 -5 1 0 -1 -3 -0 -0 4 0 2 1 1 -1 -1 -1 -1 -0 -2 -1 -1 -1 0 3 -2 1 1 -0 1 1 -0 -1 -0 -0 -1 -1 -0 -0
-5 1 -2 -4 -4 -2 -6 -0 -3 -5 -1 -1 -1 -0 1 0 1 0 -1 -0 1 -1 -0 1 -1 -0 -1 -1 0 1 1 0 1 2 1 -1 -1 -1 1 2 0 -0 0 -1
-4 -6 -4 -10 -6 -1 -7 -2 -1 1 -0 6 -1 -1 1 0 -1 -0 0 -0 -0 -2 -1 -1 0 1 -0 -0 1 -2 -2 1 2 1 -1 -1 -0 -0 0 0 -1 -1 -1 -0
Height
1490 1497 1500 1495 1496 1494 1495 1498 1501 1495 1487 1485 1483 1482 1479 1479 1480 1479 1479 1483 1487 1492 1496 1500 1504 1507 1509 1510 1511 1512 1512 1511 1509 1509 1509 1509 1507 1506 1505 1503 1504 1501 1499 1497
1497 1498 1488 1490 1491 1495 1496 1499 1501 1492 1484 1486 1484 1484 1478 1475 1478 1479 1481 1483 1486 1492 1496 1500 1504 1507 1509 1510 1510 1510 1510 1510 1509 1509 1508 1508 1507 1506 1504 1502 1502 1501 1498 1496
1495 1489 1486 1487 1489 1492 1494 1496 1494 1492 1486 1485 1486 1485 1480 1477 1477 1477 1479 1482 1486 1489 1494 1498 1502 1505 1507 1509 1509 1508 1509 1509 1508 1508 1508 1507 1506 1505 1505 1504 1502 1499 1498 1496
1490 1483 1486 1486 1489 1487 1494 1483 1485 1486 1491 1500 1488 1502 1482 1475 1475 1478 1479 1478 1480 1484 1490 1494 1499 1503 1505 1507 1507 1506 1507 1506 1507 1507 1506 1507 1505 1505 1503 1502 1501 1499 1497 1495
1488 1482 1484 1485 1480 1480 1486 1480 1480 1484 1491 1495 1495 1502 1487 1480 1478 1481 1482 1481 1483 1485 1487 1493 1499 1501 1504 1505 1505 1506 1504 1504 1505 1506 1505 1504 1504 1503 1501 1500 1500 1499 1496 1494
1485 1480 1480 1478 1477 1476 1477 1483 1489 1494 1499 1506 1492 1496 1491 1483 1477 1479 1482 1483 1484 1486 1491 1495 1499 1501 1502 1503 1504 1504 1503 1503 1503 1505 1503 1503 1502 1502 1500 1500 1499 1498 1495 1494
1485 1478 1475 1475 1478 1477 1481 1493 1508 1507 1509 1500 1484 1494 1483 1475 1475 1476 1477 1480 1482 1485 1488 1491 1492 1495 1497 1500 1502 1504 1503 1504 1503 1503 1503 1503 1502 1501 1500 1498 1498 1497 1496 1493
1492 1490 1474 1472 1473 1477 1483 1488 1500 1498 1499 1493 1486 1488 1481 1475 1475 1474 1475 1477 1480 1480 1481 1484 1487 1489 1494 1496 1499 1502 1503 1503 1502 1502 1504 1502 1501 1500 1500 1499 1497 1497 1496 1494
1493 1487 1473 1470 1470 1473 1478 1485 1478 1486 1496 1499 1490 1480 1473 1474 1475 1474 1475 1477 1479 1480 1482 1485 1488 1493 1493 1495 1497 1498 1500 1501 1501 1502 1502 1501 1501 1500 1499 1499 1498 1499 1497 1495
1479 1488 1475 1473 1471 1472 1472 1474 1487 1493 1503 1497 1491 1482 1481 1474 1471 1473 1474 1474 1475 1478 1482 1485 1486 1488 1491 1494 1496 1498 1499 1499 1500 1500 1501 1501 1499 1499 1500 1500 1499 1498 1496 1494
1476 1484 1482 1476 1474 1477 1479 1481 1482 1486 1495 1502 1501 1480 1468 1463 1462 1468 1466 1466 1470 1473 1477 1480 1483 1486 1489 1492 1493 1496 1497 1498 1499 1500 1500 1500 1498 1499 1500 1500 1499 1497 1496 1494
1476 1484 1491 1480 1477 1477 1475 1478 1480 1494 1488 1493 1510 1468 1462 1462 1462 1463 1463 1464 1467 1471 1474 1476 1479 1481 1484 1488 1490 1492 1495 1497 1498 1499 1499 1498 1498 1499 1500 1500 1498 1496 1495 1494
1476 1487 1487 1486 1485 1478 1478 1479 1479 1486 1492 1492 1512 1476 1460 1459 1461 1459 1461 1462 1463 1466 1468 1470 1473 1475 1480 1484 1487 1489 1492 1495 1497 1497 1497 1497 1498 1499 1500 1499 1497 1496 1495 1495
1475 1483 1483 1493 1483 1482 1482 1481 1481 1482 1505 1493 1476 1469 1459 1460 1461 1458 1458 1458 1459 1459 1460 1461 1465 1470 1477 1481 1484 1486 1490 1493 1494 1495 1496 1497 1498 1499 1499 1498 1497 1497 1497 1496
1476 1482 1484 1481 1481 1481 1479 1480 1481 1483 1479 1484 1453 1465 1453 1457 1456 1453 1451 1452 1451 1451 1452 1453 1456 1461 1470 1476 1480 1484 1487 1490 1492 1493 1495 1497 1497 1498 1498 1498 1498 1498 1497 1497
1477 1481 1484 1497 1482 1481 1482 1481 1481 1473 1467 1467 1461 1452 1453 1447 1447 1447 1444 1443 1443 1443 1444 1446 1450 1459 1464 1470 1475 1480 1483 1487 1490 1491 1494 1496 1497 1497 1498 1498 1499 1499 1499 1499
1477 1479 1485 1478 1478 1477 1474 1474 1463 1460 1459 1458 1458 1445 1443 1442 1440 1439 1437 1437 1436 1437 1439 1441 1445 1451 1458 1465 1471 1476 1480 1484 1487 1490 1492 1494 1496 1497 1498 1499 1500 1500 1500 1500
1472 1476 1478 1483 1478 1487 1461 1454 1453 1456 1451 1448 1444 1438 1435 1434 1433 1433 1433 1432 1432 1433 1435 1438 1441 1447 1455 1463 1469 1474 1478 1481 1485 1488 1491 1493 1495 1497 1498 1499 1500 1501 1502 1502
1463 1469 1477 1475 1474 1462 1455 1445 1447 1450 1441 1434 1436 1431 1429 1430 1431 1429 1429 1429 1430 1432 1435 1438 1440 1445 1452 1460 1466 1470 1475 1479 1483 1486 1489 1492 1494 1496 1498 1499 1500 1502 1503 1503
1461 1464 1470 1480 1473 1474 1451 1444 1443 1442 1442 1430 1429 1428 1428 1429 1439 1432 1429 1429 1430 1432 1435 1437 1441 1445 1451 1457 1462 1468 1472 1477 1481 1485 1488 1491 1494 1496 1497 1499 1500 1502 1503 1503
1465 1472 1470 1468 1467 1458 1445 1443 1441 1448 1446 1431 1428 1427 1428 1429 1430 1429 1429 1430 1431 1433 1435 1438 1442 1445 1450 1455 1461 1466 1471 1475 1480 1483 1486 1489 1492 1494 1496 1498 1500 1502 1503 1503
1458 1467 1466 1464 1464 1459 1442 1441 1443 1439 1433 1433 1431 1428 1426 1426 1427 1428 1428 1429 1431 1433 1435 1439 1442 1446 1450 1455 1460 1465 1470 1474 1478 1482 1485 1488 1491 1493 1494 1497 1499 1501 1502 1503
1457 1450 1455 1456 1446 1440 1436 1436 1433 1432 1430 1430 1430 1428 1425 1424 1425 1426 1427 1429 1431 1434 1436 1439 1443 1446 1451 1456 1461 1465 1469 1473 1476 1479 1483 1485 1488 1491 1493 1495 1498 1499 1501 1501
1443 1444 1446 1449 1437 1436 1433 1429 1428 1428 1426 1425 1426 1425 1423 1422 1422 1424 1426 1428 1431 1434 1437 1440 1444 1448 1451 1456 1461 1466 1469 1472 1474 1477 1480 1483 1486 1488 1491 1493 1496 1498 1499 1500
1441 1442 1441 1442 1432 1430 1426 1424 1423 1421 1422 1419 1421 1420 1419 1420 1421 1423 1425 1428 1430 1433 1437 1440 1444 1448 1452 1456 1460 1464 1467 1470 1472 1475 1478 1481 1484 1487 1489 1492 1494 1495 1497 1498
1435 1434 1440 1434 1425 1426 1422 1420 1420 1418 1416 1414 1416 1417 1417 1418 1420 1422 1423 1427 1429 1432 1436 1440 1443 1448 1451 1455 1459 1462 1466 1469 1471 1473 1476 1479 1482 1485 1487 1490 1491 1493 1495 1496